sat.trackr.live / text

‹ back to catalog

R5-S4

NORAD 60206 · 2024-125D

PAYLOAD ACTIVE UNKNOWN

§ Identity

Operator
Country
US
Launch date
2024-07-04
Launch site
AFWTR
Launch vehicle
Mass (kg)
RCS (m²)

External: N2YO · Heavens-Above · Gunter

§ Orbital elements

Epoch: 2026-09-22T20:25:54.876576Z

Period
93.16 min
Inclination
97.2272°
Eccentricity
0.0013834
Mean motion
15.45728377 rev/d
Perigee alt
419.8 km
Apogee alt
438.7 km
Semi-major
6,807.4 km
B*
2.2022e-4
RAAN
116.6057°
Arg perigee
230.7183°
Mean anomaly
129.2840°
Rev number
12,420

§ Raw data

R5-S41 60206U 24125D   26265.85132959  .00010593  00000+0  22022-3 0  99992 60206  97.2272 116.6057 0013834 230.7183 129.2840 15.45728377124208

JSON: /api/v1/satellites/60206 · /tle

For live sub-satellite position, see the globe view (requires WebGL).

§ Visibility from observer

Set your observer location to see the next 7 days of passes ≥ 10°. The values pass through the URL so the page stays shareable.

No JS? Fill the form by hand. The geolocation button needs JavaScript.

§ Radio — SatNOGS DB

ModeDescriptionDownlinkUplink
FM Mode L - Transmitter 1.621 GHz

1 transmitter · refreshed weekly from db.satnogs.org